Location: ???? ???? ?????
(31.2680°N, 31.7283°E)
Time: 09:05:55
(UTC+00:00)

Alouette 2 Rocket - Pass Details

Date: 13 July 2020
Orbit: 502 x 2650 km, 79.8° (Epoch: 08 August)

Event Time Altitude Azimuth Distance (km) Brightness Sun altitude
Rises 18:16:55 0° 353° (N) 3,040 7.8 -15.0°
Reaches altitude 10° 18:18:49 10° 354° (N) 2,279 7.1 -15.3°
Maximum altitude 18:23:53 78° 82° (E) 1,013 4.5 -16.1°
Enters shadow 18:30:46 14° 168° (SSE) 3,113 6.7 -17.3°
